Simultaneous Nadir Overpasses (SNOs) Predictions

Prediction of SNOs between METOP-A and TERRA Satellite Orbit:

Table of predicted SNOs for the next 14.0 days since TLE Epoch: 11/18/2011
Index Date Time (METOP-A) METOP-A Lat,Lon TERRA Lat,Lon Distance(km) Time Diff (sec)
1 11/19/2011 23:08:20 81.22,-120.28 81.23,-120.40 1.94 32
2 11/19/2011 23:59:01 -81.22, 47.05 -81.22, 47.09 0.85 42
3 11/22/2011 18:42:43 81.22, -53.95 81.22, -54.00 0.83 19
4 11/22/2011 19:33:23 -81.23, 113.77 -81.24, 113.88 2.16 55
5 11/25/2011 14:17:05 81.22, 12.60 81.22, 12.46 2.38 6
6 11/25/2011 15:07:45 -81.23,-179.69 -81.24,-179.64 1.26 68
7 11/28/2011 09:00:47 -81.22, -88.59 -81.22, -88.71 2.06 66
8 11/28/2011 09:51:27 81.22, 78.98 81.23, 78.99 0.27 8
9 12/01/2011 04:35:08 -81.22, -22.38 -81.21, -22.46 1.59 52




NCC Satellite Simultaneous Nadir Overpasses (SNOs) Prediction Service
